Date,TemperatureHighF,TemperatureAvgF,TemperatureLowF,DewpointHighF,DewpointAvgF,DewpointLowF,HumidityHigh,HumidityAvg,HumidityLow,PressureMaxIn,PressureMinIn,WindSpeedMaxMPH,WindSpeedAvgMPH,GustSpeedMaxMPH,PrecipitationSumIn
2013-1-8,52.9,48.7,41.8,48.7,45.8,39.4,95,90,82,30.08,29.78,31,8,31,0.86
2013-1-9,50.5,40.3,34.4,47.4,37.9,32.6,94,91,84,30.01,29.73,21,4,21,1.44
2013-1-10,38.4,35.8,30.8,35.2,32.9,28.8,93,89,84,30.19,30.00,10,1,10,0.05
2013-1-11,34.2,29.9,26.9,30.2,27.4,24.8,93,90,81,30.40,30.18,8,1,8,0.01
2013-1-12,36.5,29.9,26.6,29.1,25.6,23.8,94,85,64,30.52,30.39,14,1,14,0.00
2013-1-13,35.7,30.0,25.3,29.2,25.8,23.0,92,85,63,30.57,30.51,6,0,6,0.01
2013-1-14,33.7,33.2,32.6,29.8,29.0,28.0,86,85,83,30.59,30.54,9,0,9,0.00
2013-1-17,37.4,35.5,32.8,35.2,33.6,31.3,94,93,91,30.45,30.37,3,0,3,0.01
2013-1-18,36.5,33.3,31.3,35.2,31.9,29.8,95,95,94,30.42,30.34,10,1,10,0.00
2013-1-19,34.8,32.6,29.9,33.2,31.2,28.6,95,94,93,30.46,30.41,10,1,10,0.00
2013-1-20,39.7,33.7,30.9,35.9,31.9,29.6,96,93,85,30.47,30.34,9,1,9,0.00
2013-1-21,34.5,32.0,29.4,33.5,30.8,28.1,96,95,94,30.35,30.21,6,0,6,0.01
2013-1-22,39.0,34.3,30.5,35.4,32.1,29.2,95,92,81,30.22,29.97,5,0,5,0.00
2013-1-23,42.7,40.5,37.4,40.2,37.0,31.1,93,87,69,30.20,29.91,12,1,12,0.31
2013-1-24,45.4,42.6,40.8,40.3,38.1,35.1,93,84,68,30.28,30.11,11,0,11,0.17
2013-1-25,51.0,45.4,41.6,44.8,42.0,38.9,95,88,75,30.12,29.99,15,1,15,0.03
2013-1-26,44.6,42.3,40.5,40.7,38.8,37.1,92,87,82,30.10,29.95,15,2,15,0.43
2013-1-27,42.4,40.9,39.8,38.9,37.4,36.0,92,88,83,30.12,30.05,18,3,18,0.14
2013-1-28,42.2,40.9,39.3,40.3,38.6,36.9,93,92,90,30.15,30.07,12,1,12,0.42
2013-1-29,46.7,44.4,41.9,44.9,42.5,39.7,94,93,90,30.40,30.15,16,2,16,0.50
2013-1-30,47.4,46.1,44.0,46.1,44.8,42.2,96,95,93,30.44,30.39,9,1,9,0.12
2013-1-31,49.2,46.8,45.4,45.0,44.5,43.7,96,92,83,30.46,30.36,17,2,17,0.11
2013-2-1,51.5,45.2,41.9,44.6,42.7,39.9,95,91,75,30.48,30.39,13,1,13,0.00
2013-2-2,42.0,40.0,38.1,40.1,38.2,36.5,95,93,89,30.45,30.32,10,1,10,0.00
2013-2-3,47.4,43.6,38.5,42.7,40.9,36.7,99,91,83,30.37,30.27,8,0,8,0.10
2013-2-4,50.7,46.2,44.0,42.6,41.7,40.8,92,84,70,30.28,29.95,12,0,12,0.01
2013-2-5,51.2,46.1,44.1,43.0,41.7,40.3,92,85,70,30.00,29.90,22,4,22,0.17
2013-2-6,50.4,45.5,43.4,41.7,40.2,38.4,87,82,65,30.11,29.85,19,4,19,0.09
2013-2-7,49.7,43.8,37.7,40.3,36.7,32.6,92,77,55,30.26,29.85,24,3,24,0.01
2013-2-8,45.0,39.4,34.5,37.5,35.4,32.8,94,86,72,30.38,30.26,5,0,5,0.00
2013-2-9,44.2,41.5,39.6,39.8,38.5,36.3,93,89,81,30.41,30.33,5,0,5,0.00
2013-2-10,46.7,40.0,33.8,39.4,36.3,32.3,95,87,65,30.45,30.38,11,0,11,0.00
2013-2-11,47.0,43.3,40.4,41.1,39.2,37.8,93,86,74,30.43,30.39,8,0,8,0.06
2013-2-12,49.7,46.4,43.4,45.5,43.4,40.2,94,89,81,30.47,30.35,23,3,23,0.04
2013-2-13,48.5,45.1,43.8,44.7,41.9,40.3,93,88,82,30.57,30.37,11,1,11,0.04
2013-2-14,48.3,45.1,42.9,43.5,42.0,39.8,93,89,80,30.63,30.55,14,1,14,0.07
2013-2-15,54.5,44.8,40.0,45.0,41.3,37.9,95,88,68,30.62,30.24,11,1,11,0.00
2013-2-16,54.1,44.1,38.8,42.8,40.6,36.9,95,88,60,30.27,30.16,19,3,19,0.22
2013-2-17,45.0,41.8,40.5,39.2,37.0,35.0,91,83,75,30.32,30.18,14,1,14,0.02
2013-2-18,45.2,41.8,38.4,37.8,36.7,35.1,90,82,69,30.18,29.82,12,1,12,0.00
2013-2-19,49.2,42.3,36.4,38.6,36.1,33.3,92,79,61,30.08,29.80,16,2,16,0.00
2013-2-20,44.5,37.0,35.7,39.0,25.4,-99.9,93,80,78,30.11,30.00,16,-81,16,0.15
2013-2-21,44.0,42.1,39.3,39.6,38.1,36.7,93,86,80,30.13,30.07,24,4,24,0.17
2013-2-22,46.5,42.6,38.8,41.5,37.9,33.0,89,83,71,30.11,29.74,33,8,33,0.10
2013-2-23,49.4,42.8,39.4,38.1,36.1,33.7,85,77,60,30.44,29.96,15,2,15,0.10
2013-2-24,46.9,44.3,41.0,38.1,36.1,34.3,82,73,62,30.44,30.01,23,4,23,0.00
2013-2-25,51.9,44.2,40.1,39.1,36.1,31.1,88,74,49,30.38,29.95,26,5,26,0.10
2013-2-26,47.4,43.4,38.3,36.7,34.6,31.9,84,72,56,30.42,30.26,18,2,18,0.01
2013-2-27,49.1,44.0,40.8,42.3,39.9,36.5,94,86,67,30.38,30.27,14,0,14,0.34
2013-2-28,51.9,46.5,42.3,49.4,44.5,40.3,95,93,90,30.38,30.25,19,2,19,0.25
2013-3-1,56.8,53.1,49.2,49.7,48.8,47.3,95,85,76,30.42,30.34,23,4,23,0.25
2013-3-2,55.8,48.8,38.2,48.5,43.7,35.4,95,83,71,30.34,30.13,22,4,22,0.00
2013-3-3,49.0,41.3,36.3,37.7,35.2,32.0,93,80,54,30.38,30.27,16,2,16,0.00
2013-3-4,54.6,42.0,31.8,37.0,32.1,26.3,92,71,39,30.38,29.99,12,2,12,0.00
2013-3-5,50.1,44.7,39.7,40.0,35.6,27.6,88,71,55,30.00,29.79,11,2,11,0.00
2013-3-6,43.4,42.0,40.7,40.7,39.0,37.3,92,89,81,29.96,29.65,15,3,15,0.91
2013-3-7,51.7,44.3,40.0,43.8,40.4,38.1,94,87,68,30.16,29.96,12,0,12,0.14
2013-3-8,53.1,41.7,33.7,42.7,37.4,32.2,95,85,63,30.31,30.15,13,2,13,0.14
2013-3-9,55.4,42.5,33.3,42.1,36.6,31.5,95,81,51,30.57,30.31,7,0,7,0.00
2013-3-10,47.5,42.6,37.5,41.3,38.5,34.8,93,86,70,30.57,30.50,7,0,7,0.01
2013-3-11,51.9,46.3,42.1,44.6,41.7,39.9,93,85,66,30.51,30.26,7,0,7,0.01
2013-3-12,54.9,51.1,47.1,49.7,47.3,44.9,93,87,73,30.23,30.13,26,7,26,0.04
2013-3-13,51.7,50.5,49.6,49.5,47.9,46.6,93,90,86,30.27,30.16,28,4,28,0.31
2013-3-14,53.0,49.7,47.2,48.2,46.2,43.3,95,88,71,30.22,30.09,17,2,17,0.06
2013-3-15,59.8,51.8,47.3,49.4,47.1,44.3,94,84,67,30.28,30.20,16,2,16,0.06
2013-3-16,49.8,46.2,38.6,44.6,40.8,34.4,88,82,66,30.20,29.94,23,5,23,0.03
2013-3-17,49.2,41.6,38.3,37.1,34.8,31.5,90,77,55,30.26,30.04,16,3,16,0.07
2013-3-18,51.7,43.8,39.7,40.0,36.2,33.7,91,75,52,30.31,30.17,26,3,26,0.04
2013-3-19,56.2,43.1,36.2,40.5,36.1,31.8,91,78,41,30.30,29.66,18,2,18,0.36
2013-3-20,51.4,46.3,37.9,47.5,40.6,33.0,94,81,65,30.08,29.45,31,6,31,0.55
2013-3-21,46.9,39.7,36.6,37.7,34.3,32.4,90,81,60,30.29,30.08,16,2,16,0.18
2013-3-22,45.7,38.9,34.4,35.4,31.8,27.8,92,77,53,30.45,30.28,16,1,16,0.05
2013-3-23,49.6,40.2,33.5,33.4,29.8,23.6,89,68,38,30.47,30.37,11,1,11,0.05
2013-3-24,55.1,42.3,32.4,38.1,32.4,29.0,89,70,40,30.37,30.19,7,0,7,0.00
2013-3-25,61.4,48.2,36.6,40.9,33.9,28.7,81,59,33,30.20,29.99,11,2,11,0.00
2013-3-26,60.2,49.9,44.2,42.8,39.1,-99.9,83,68,41,30.08,29.97,10,1,10,0.00
2013-3-27,56.9,48.7,44.8,46.7,42.5,38.9,93,80,59,30.06,30.00,11,0,11,0.03
2013-3-28,62.4,50.9,43.4,48.5,45.0,41.6,94,82,54,30.22,30.05,11,0,11,0.02
2013-3-29,63.9,51.7,43.7,48.6,44.9,41.8,93,79,55,30.32,30.21,12,1,12,0.02
2013-3-30,62.5,51.6,42.1,48.4,44.8,40.1,93,79,59,30.33,30.14,14,3,14,0.00
2013-3-31,65.9,53.0,42.7,49.3,44.7,40.4,93,75,51,30.14,29.97,12,2,12,0.00
2013-4-1,62.1,52.8,46.4,49.2,46.3,43.5,92,80,60,30.22,30.03,17,2,17,0.00
2013-4-2,56.0,51.6,48.0,47.9,45.6,44.1,88,80,72,30.27,30.21,14,1,14,0.00
2013-4-3,62.2,52.6,45.2,48.2,45.3,42.7,93,77,54,30.26,30.01,7,1,7,0.00
2013-4-4,56.4,51.9,48.9,52.6,48.7,45.3,95,89,81,30.01,29.71,19,1,19,0.45
2013-4-5,58.1,52.5,48.2,50.3,48.0,45.1,92,85,71,29.94,29.78,24,5,24,0.16
2013-4-6,51.6,48.0,45.2,46.6,43.5,41.2,92,84,74,29.99,29.76,23,5,23,0.39
2013-4-7,45.9,43.4,40.3,42.8,40.5,37.4,92,89,87,29.96,29.57,17,2,17,0.60
2013-4-8,54.4,47.3,42.8,46.3,42.8,39.5,92,85,68,30.34,29.95,12,1,13,0.66
2013-4-9,53.7,49.1,44.1,44.8,42.1,38.8,89,77,58,30.42,30.25,10,1,10,0.00
2013-4-10,59.4,51.7,48.2,50.4,45.5,41.9,92,80,68,30.32,30.00,24,4,24,0.25
2013-4-11,53.1,47.9,43.7,43.8,39.7,35.9,92,74,53,30.37,30.26,15,2,15,0.11
2013-4-12,45.9,43.8,40.6,43.0,38.9,36.2,92,83,70,30.26,29.74,21,3,21,0.26
2013-4-13,47.4,42.3,37.0,41.8,37.8,33.6,92,84,74,30.07,29.83,24,3,24,0.52
2013-4-14,53.9,45.5,39.5,40.5,37.7,32.8,97,75,50,30.08,29.98,14,2,14,0.62
2013-4-15,53.9,45.6,40.1,42.5,39.2,36.8,91,79,57,30.25,30.01,22,2,22,0.00
2013-4-16,55.2,45.6,38.1,41.7,38.4,34.5,94,77,53,30.47,30.25,20,1,20,0.04
2013-4-17,59.7,48.4,38.0,44.7,38.4,32.6,90,71,38,30.53,30.46,13,2,13,0.04
2013-4-18,50.6,47.4,44.2,47.0,42.3,37.6,91,83,74,30.53,30.27,18,2,18,0.23
2013-4-19,53.6,50.3,47.9,51.1,48.0,45.8,94,92,88,30.27,30.13,20,3,20,0.54
2013-4-20,54.1,49.1,46.3,48.4,45.3,43.3,93,87,74,30.34,30.26,14,2,14,0.31
2013-4-21,54.2,47.1,44.3,44.5,41.6,38.1,93,81,63,30.44,30.30,18,2,18,0.15
2013-4-22,57.5,48.5,38.8,42.7,38.1,31.5,93,69,41,30.59,30.44,16,3,16,0.15
2013-4-23,61.2,49.4,37.2,43.5,37.5,32.4,90,66,36,30.50,30.31,14,2,14,0.00
2013-4-24,66.5,48.8,41.2,45.3,40.7,38.1,90,76,41,30.40,30.28,7,1,7,0.00
2013-5-20,67.3,58.7,49.4,52.2,48.9,46.5,92,71,51,30.33,29.97,17,3,17,0.00
2013-5-21,56.1,50.3,46.3,48.9,44.9,42.8,91,82,66,29.98,29.84,20,2,20,0.06
2013-5-22,53.2,48.0,44.7,45.7,43.8,41.4,92,85,73,30.01,29.91,13,2,13,0.02
2013-5-23,58.4,50.3,45.1,45.9,43.7,40.8,91,79,55,30.09,29.96,18,1,18,0.01
2013-5-24,62.9,54.2,47.0,49.6,45.7,42.9,91,74,52,30.12,30.03,14,1,14,0.02
2013-5-25,64.7,55.9,50.9,49.1,46.5,43.4,86,72,50,30.11,30.03,11,2,11,0.02
2013-5-26,64.5,56.1,50.6,54.2,50.2,47.4,92,81,65,30.06,30.01,14,1,14,0.06
2013-5-27,59.2,55.8,52.4,54.9,51.8,48.6,91,86,79,30.03,29.78,13,1,13,0.25
2013-5-28,62.7,56.5,52.5,52.1,49.1,46.3,89,77,63,29.95,29.83,17,2,17,0.25
2013-5-29,61.2,53.7,49.8,50.7,48.6,46.6,95,83,64,30.04,29.75,19,2,19,0.07
2013-5-30,61.9,55.1,50.0,48.9,46.6,44.2,85,74,57,30.32,30.03,19,4,19,0.09
2013-5-31,67.5,57.9,51.6,49.7,46.9,42.8,84,68,43,30.41,30.31,18,2,18,0.00
2013-6-1,71.9,60.0,52.5,53.2,48.5,44.6,83,67,42,30.32,30.12,17,3,17,0.00
2013-6-2,70.0,60.9,52.9,54.6,50.6,47.5,88,70,49,30.16,30.10,12,1,12,0.06
2013-6-3,71.1,60.6,50.9,56.9,51.9,47.9,92,74,50,30.19,30.12,12,2,12,0.00
2013-6-4,75.5,64.6,52.5,58.5,53.3,47.5,90,68,51,30.20,30.08,13,2,13,0.00
2013-6-5,74.2,64.3,54.8,60.9,54.1,47.5,83,70,57,30.16,30.09,14,3,14,0.00
2013-6-6,77.8,64.8,53.7,57.3,52.3,45.0,89,66,39,30.13,30.06,14,2,14,0.00
2013-6-7,68.2,61.1,55.5,55.8,49.4,43.8,77,66,49,30.22,30.09,17,2,17,0.00
2013-6-8,68.3,59.0,53.1,53.3,49.1,46.4,80,70,56,30.26,30.16,13,1,13,0.00
2013-6-9,66.7,42.0,51.9,51.1,6.6,-99.9,84,50,53,30.18,30.09,17,-278,17,0.00
2013-6-10,70.5,46.2,49.9,50.7,10.7,-99.9,82,46,42,30.11,29.94,11,-250,11,0.00
2013-6-11,67.3,31.6,55.0,52.9,-22.9,-99.9,82,33,48,30.17,30.00,18,-475,18,0.14
2013-6-12,68.0,39.4,55.8,51.0,-6.9,-99.9,84,37,47,30.21,30.16,18,-365,18,0.01
2013-6-13,67.2,26.0,56.9,52.1,-36.6,-99.9,77,28,52,30.24,30.20,12,-575,12,0.01
2013-6-17,77.9,62.1,60.0,53.9,32.3,-99.9,76,45,37,30.05,29.94,16,-121,16,0.00
2013-6-18,75.2,45.7,58.8,53.8,0.7,-99.9,76,35,34,30.04,29.93,16,-321,16,0.00
2013-6-19,65.7,59.8,55.3,54.6,51.1,48.1,82,73,58,30.08,29.98,13,1,13,0.00
2013-6-20,60.3,56.1,53.2,54.9,51.3,48.4,93,84,70,30.18,30.02,13,2,13,1.11
2013-6-21,70.0,60.8,53.4,54.4,52.2,49.3,92,75,53,30.23,30.18,9,1,9,1.12
2013-6-22,78.7,65.6,54.1,57.2,53.2,50.8,91,67,39,30.19,29.91,14,2,14,0.00
2013-6-23,71.6,65.7,60.2,62.0,57.9,53.2,91,76,65,29.91,29.66,7,1,7,0.15
2013-6-24,70.3,62.6,56.7,59.8,55.1,52.1,92,78,57,29.76,29.64,16,2,16,0.06
2013-6-25,76.0,63.1,57.0,58.7,55.8,52.4,92,79,46,29.92,29.74,30,1,30,0.27
2013-6-26,72.8,64.1,57.9,60.6,56.9,54.9,93,79,58,30.14,29.91,15,2,15,0.31
2013-6-27,71.6,65.3,60.3,62.6,60.1,56.1,92,83,70,30.26,30.11,8,0,8,0.03
2013-6-28,89.1,73.5,61.5,66.8,62.6,58.8,92,71,43,30.26,30.09,13,2,13,0.03
2013-6-29,84.8,73.4,65.9,67.5,61.6,58.0,84,68,47,30.17,30.05,13,2,13,0.00
2013-6-30,87.0,75.5,62.9,69.6,63.7,55.3,80,67,52,30.07,29.90,13,2,13,0.00
2013-7-1,86.6,76.2,67.3,69.6,63.2,57.6,79,65,51,30.08,29.97,13,3,13,0.00
2013-7-2,78.9,68.8,62.0,62.4,56.7,51.1,84,67,44,30.17,30.08,13,2,13,0.00
2013-7-3,76.8,66.6,59.0,58.5,52.6,46.6,72,61,42,30.22,30.10,14,3,14,0.00
2013-7-4,72.4,63.3,56.8,55.2,52.8,50.2,82,69,52,30.19,30.09,7,1,12,0.00
2013-7-5,73.3,64.7,56.5,57.3,54.3,51.4,85,70,54,30.11,30.01,11,1,11,0.00
2013-7-6,77.5,67.5,57.0,60.2,56.3,53.2,88,69,47,30.05,29.92,10,2,10,0.00
2013-7-7,76.6,66.6,58.9,61.3,57.2,52.6,85,72,55,30.02,29.93,13,1,13,0.00
2013-7-8,80.1,66.7,56.4,61.4,56.1,51.8,85,70,45,30.16,30.00,14,2,14,0.00
2013-7-9,81.3,70.9,60.5,62.9,57.8,52.5,85,65,48,30.17,30.06,14,2,14,0.00
2013-7-10,73.1,63.9,57.6,57.9,53.8,49.1,80,70,56,30.12,30.01,14,2,14,0.00
2013-7-11,69.7,60.8,56.0,53.2,49.6,47.6,76,67,49,30.16,30.06,16,3,16,0.00
2013-7-12,67.1,60.1,53.3,53.0,49.9,46.6,79,70,57,30.17,30.08,6,0,6,0.00
2013-7-13,74.5,64.3,52.5,54.3,50.7,46.1,87,63,46,30.27,30.17,13,3,13,0.00
2013-7-14,81.0,67.4,54.2,57.8,51.7,47.2,85,59,33,30.20,30.05,16,3,16,0.00
2013-7-15,77.3,68.1,56.6,58.0,53.4,48.7,82,61,45,30.12,29.96,16,4,16,0.00
2013-7-16,82.9,72.1,61.0,62.1,55.7,49.2,72,57,41,29.97,29.85,13,3,13,0.00
2013-7-17,71.8,66.2,60.7,60.0,56.2,53.1,84,71,52,30.25,29.94,20,2,20,0.04
2013-7-18,78.7,66.5,58.4,61.4,56.4,53.2,85,71,51,30.30,30.18,14,2,14,0.00
2013-7-19,79.2,66.3,56.3,63.9,57.7,52.9,90,75,54,30.24,30.09,13,2,13,0.00
2013-7-20,78.0,64.5,55.8,62.9,56.9,52.5,92,78,54,30.15,30.01,10,2,10,0.00
2013-7-21,76.7,64.9,56.6,61.6,56.9,53.6,91,77,57,30.05,29.96,11,1,11,0.00
2013-7-22,79.1,65.8,56.3,63.5,57.2,53.7,92,75,48,30.13,30.00,10,2,10,0.00
2013-7-23,82.1,70.1,58.7,63.8,57.9,53.5,86,67,44,30.13,30.02,12,3,12,0.00
2013-7-24,82.2,70.8,59.9,62.2,56.1,49.8,81,61,41,30.12,30.05,13,2,13,0.00
2013-7-25,80.6,70.1,58.3,60.3,54.9,50.0,78,60,44,30.16,30.09,14,2,14,0.00
2013-7-26,65.6,17.4,58.0,54.5,-56.2,-99.9,83,22,66,30.20,-32.77,7,-713,7,0.00
2013-7-27,-200.0,0.0,200.0,-99.9,-99.9,-99.9,0,0,100,0.00,-32.77,0,-999,0,0.00
2013-7-28,-200.0,0.0,200.0,-99.9,-99.9,-99.9,0,0,100,0.00,-32.77,0,-999,0,0.00
2013-7-29,57.5,0.7,57.5,51.4,-98.0,-99.9,80,1,80,29.99,-32.77,0,-987,1,0.00
2013-8-1,66.8,64.5,61.1,55.9,55.1,54.0,80,72,67,30.13,30.09,15,2,15,0.00
2013-8-2,61.3,60.1,57.5,58.1,56.0,53.5,92,86,80,30.19,30.12,17,2,17,0.21
2013-8-3,75.7,65.5,59.5,60.6,58.6,56.9,93,80,57,30.20,30.11,11,2,11,0.00
2013-8-4,79.6,68.9,58.1,65.0,59.6,54.5,90,73,58,30.13,29.99,12,3,12,0.00
2013-8-5,82.4,69.7,60.2,64.5,59.2,54.5,89,71,51,30.07,29.98,11,2,11,0.00
2013-8-6,87.0,71.2,58.0,63.7,56.8,51.1,86,62,33,30.07,29.96,10,2,10,0.00
2013-8-7,84.8,71.1,58.6,64.0,57.6,53.8,86,64,40,30.08,29.99,13,2,13,0.00
2013-8-8,83.0,68.6,58.9,63.5,57.8,54.1,88,70,48,30.10,30.00,12,1,12,0.00
2013-8-9,83.1,71.3,59.9,63.6,57.3,53.6,81,63,45,30.02,29.89,10,1,10,0.00
2013-8-10,78.1,68.2,59.9,63.7,60.2,56.0,90,77,56,30.06,29.94,14,2,14,0.09
2013-8-11,76.5,66.4,58.3,60.4,55.7,52.8,85,70,48,30.13,30.04,14,2,14,0.01
2013-8-12,79.5,67.3,59.0,60.7,56.2,53.8,85,69,46,30.14,30.05,14,1,14,0.00
2013-8-13,82.8,68.3,59.0,60.9,56.4,54.2,86,67,40,30.17,29.98,13,2,13,0.00
2013-8-14,73.5,63.8,59.4,60.4,57.3,54.8,89,80,62,30.01,29.99,10,0,10,0.00
2013-8-15,69.0,67.4,63.0,65.4,63.3,60.1,91,87,83,30.06,30.02,7,0,7,0.05
2013-8-16,84.1,70.2,61.9,62.4,59.3,46.0,95,73,27,30.07,29.99,13,1,13,0.00
2013-8-17,78.5,69.7,63.4,62.2,58.1,54.8,79,67,52,30.14,30.06,15,2,15,0.00
2013-8-18,78.5,67.4,60.9,61.9,56.6,52.4,82,69,52,30.19,30.13,19,3,19,0.00
2013-8-19,79.2,67.6,62.3,61.5,55.6,51.3,76,66,49,30.18,30.12,18,2,18,0.00
2013-8-20,73.3,65.1,58.4,57.2,52.8,49.9,79,65,51,30.23,30.13,15,3,15,0.00
2013-8-21,78.6,67.6,55.9,60.6,54.7,49.8,84,65,48,30.16,29.99,13,3,13,0.00
2013-8-22,84.1,71.7,59.0,65.0,57.0,52.6,82,61,40,30.01,29.85,9,1,9,0.00
2013-8-23,74.5,67.4,62.1,58.2,56.3,54.6,82,68,53,29.96,29.88,18,3,18,0.00
2013-8-24,74.8,66.2,61.1,58.6,55.8,51.9,84,70,48,29.99,29.91,14,2,14,0.00
2013-8-25,74.5,64.4,55.9,59.3,55.6,52.7,90,74,54,30.01,29.93,9,1,9,0.02
2013-8-26,75.0,66.3,62.5,61.7,57.8,51.5,86,75,46,30.02,29.91,7,1,16,0.06
2013-8-27,79.8,69.1,62.5,62.4,58.7,55.8,86,71,51,30.02,29.84,10,2,14,0.01
2013-8-28,80.2,69.5,60.7,64.8,61.2,56.4,94,76,53,29.95,29.89,4,1,7,0.22
2013-8-29,74.7,67.7,65.0,66.1,63.3,60.8,93,86,70,30.08,29.92,6,1,9,0.60
2013-8-30,80.3,68.8,62.7,62.6,57.5,52.3,89,69,39,30.20,30.08,15,3,15,0.00
2013-8-31,77.2,67.0,57.9,63.1,58.3,54.9,91,75,58,30.15,29.90,14,3,14,0.00
2013-9-1,82.3,69.7,59.2,62.0,58.8,55.8,90,70,47,29.96,29.85,12,1,12,0.00
2013-9-2,82.6,71.2,61.2,60.4,58.3,55.6,89,66,45,30.01,29.91,14,2,14,0.00
2013-9-3,75.2,66.1,61.6,63.4,60.6,58.6,92,83,63,30.09,29.99,10,1,10,0.23
2013-9-4,69.7,64.4,60.6,61.9,59.9,57.1,91,86,74,30.12,30.05,12,1,12,0.01
2013-9-5,66.8,62.9,59.8,60.8,58.9,56.8,94,87,80,30.11,29.96,16,2,16,0.43
2013-9-6,72.4,64.3,60.4,62.6,60.3,58.8,95,87,69,30.17,30.00,12,1,12,0.63
2013-9-7,75.7,65.8,62.3,62.1,59.8,58.1,90,81,61,30.17,30.08,12,1,12,0.00
2013-9-8,80.9,67.4,59.0,63.9,60.0,56.7,94,79,50,30.18,30.08,8,1,8,0.00
2013-9-9,78.1,65.6,58.0,63.8,59.6,56.2,94,82,60,30.14,30.03,13,2,13,0.00
2013-9-10,77.3,66.4,57.2,65.3,60.1,55.1,95,81,64,30.07,29.94,15,3,15,0.00
2013-9-11,88.4,73.6,61.2,69.6,62.6,57.1,90,70,44,30.01,29.91,11,2,11,0.00
2013-9-12,80.4,68.5,60.5,65.2,60.9,56.6,92,78,54,30.07,29.95,9,1,9,0.00
2013-9-13,64.7,61.2,59.6,59.8,58.4,56.9,94,91,84,30.04,29.99,6,0,6,0.00
2013-9-16,70.4,62.5,58.5,60.4,56.8,52.8,87,82,68,30.00,29.94,20,4,20,0.02
2013-9-17,62.0,59.4,57.1,54.5,52.8,50.7,88,79,68,30.00,29.93,10,0,10,0.00
2013-9-18,62.4,57.2,55.6,54.0,52.8,51.4,90,85,70,30.13,30.00,10,1,10,0.00
2013-9-19,79.7,71.6,60.2,59.1,54.2,49.7,80,56,39,29.97,29.82,4,0,4,0.00
2013-9-20,76.1,63.4,56.2,56.4,54.0,50.9,88,73,45,29.82,29.65,17,1,17,0.05
2013-9-21,69.9,61.8,56.0,56.8,54.2,51.8,89,77,58,29.79,29.71,13,1,13,0.00
2013-9-22,61.8,58.6,55.8,55.1,52.9,49.1,90,82,66,29.80,29.64,19,6,24,0.28
2013-9-23,61.2,57.1,52.7,53.9,51.4,47.1,89,81,71,30.03,29.80,25,4,25,0.17
2013-9-24,63.8,55.7,51.0,50.9,48.5,44.5,90,78,52,30.02,29.90,13,2,13,0.02
2013-9-25,58.9,52.8,49.2,49.7,48.1,45.8,92,84,63,30.10,29.92,17,3,17,0.07
2013-9-26,63.4,44.4,47.6,52.0,19.8,-99.9,96,64,56,30.19,30.09,10,-193,10,0.00
2013-9-27,54.6,11.4,51.7,49.1,-68.3,-99.9,90,18,79,30.18,29.91,16,-785,16,0.00
2013-9-28,61.1,27.5,54.1,57.7,-26.6,-99.9,94,43,85,29.91,29.40,27,-524,27,1.32
2013-9-29,57.4,28.1,53.4,51.7,-23.1,-99.9,87,42,74,29.62,29.22,24,-482,24,0.32
2013-9-30,57.1,28.6,50.7,49.6,-20.6,-99.9,85,43,76,29.99,29.47,25,-456,25,0.07
2013-10-1,51.2,50.1,49.0,46.1,45.2,44.3,86,83,80,30.01,29.97,16,4,16,0.00
2013-10-7,61.7,56.3,53.2,49.0,47.3,44.9,84,72,56,30.07,30.01,19,4,19,0.02
2013-10-8,55.7,51.2,45.6,47.8,45.0,42.8,91,80,66,30.14,30.03,17,2,17,0.43
2013-10-9,59.1,48.9,41.9,46.4,43.6,40.0,93,83,60,30.20,30.02,6,0,6,0.01
2013-10-10,57.7,51.2,47.0,49.8,47.0,44.1,91,86,70,30.14,30.00,9,1,9,0.01
2013-10-11,54.5,51.7,49.0,49.8,48.4,46.8,95,89,81,30.20,30.13,6,0,13,0.08
2013-10-12,56.3,51.1,46.5,49.0,47.5,43.9,94,88,75,30.28,30.13,16,2,16,0.05
2013-10-13,58.2,49.6,44.8,47.9,45.6,43.2,95,86,67,30.43,30.28,10,1,10,0.01
2013-10-14,59.5,48.8,41.6,48.4,44.0,40.0,95,85,61,30.50,30.42,9,1,9,0.00
2013-10-15,61.6,50.5,43.9,51.2,46.0,42.3,94,85,68,30.46,30.24,6,1,13,0.00
2013-10-16,54.6,50.8,46.7,48.6,47.1,44.1,95,87,79,30.27,30.21,12,1,12,0.00
2013-10-17,58.6,50.9,47.3,49.7,46.9,45.1,96,86,72,30.32,30.27,7,0,7,0.00
2013-10-18,59.9,49.3,43.1,51.7,46.0,41.8,96,89,72,30.32,30.21,10,1,10,0.01
2013-10-19,50.0,46.7,44.1,47.5,44.8,42.6,96,93,89,30.26,30.21,7,0,7,0.00
2013-10-20,50.1,47.5,46.0,46.8,45.3,44.1,94,92,88,30.28,30.22,7,0,7,0.00
2013-10-21,51.4,48.0,46.0,48.0,45.9,44.4,94,92,88,30.24,30.17,5,0,6,0.00
2013-10-22,58.5,48.9,46.0,51.6,46.6,44.4,95,92,77,30.19,30.10,10,1,13,0.00
2013-10-23,58.6,48.3,43.8,52.1,46.0,42.7,100,92,78,30.13,30.04,6,0,6,0.00
2013-10-24,50.1,48.0,44.9,48.8,46.3,43.6,96,94,91,30.19,30.08,5,0,5,0.01
2013-10-25,51.9,48.9,46.6,48.2,46.4,44.7,95,91,86,30.39,30.19,6,0,6,0.01
2013-10-26,52.7,50.0,46.7,46.9,45.8,44.9,94,85,78,30.40,30.26,14,1,14,0.00
2013-10-27,55.5,49.8,46.3,48.9,45.9,43.9,96,87,74,30.27,29.97,20,3,20,0.11
2013-10-28,56.1,49.5,43.3,44.4,40.0,35.2,93,72,47,30.02,29.94,26,4,26,0.00
2013-10-29,57.9,44.9,37.2,41.3,38.4,34.6,91,79,51,30.10,30.01,6,0,6,0.00
2013-10-30,56.2,47.4,38.1,46.8,41.5,35.8,93,81,68,30.19,30.09,19,1,19,0.01
2013-10-31,54.8,51.9,49.7,50.1,47.4,43.0,92,85,73,30.33,30.16,16,1,16,0.00
2013-11-1,59.9,54.2,50.7,50.6,49.3,48.3,94,84,68,30.34,29.90,10,0,10,0.00
2013-11-2,54.9,50.2,44.7,50.9,44.7,38.6,94,82,67,29.95,29.54,43,5,43,0.59
2013-11-3,53.2,45.1,42.0,42.3,39.9,37.3,90,82,56,30.18,29.94,12,1,12,0.08
2013-11-4,50.0,43.7,37.6,41.3,37.8,35.1,94,81,58,30.26,30.12,9,0,9,0.05
2013-11-5,50.4,46.3,43.6,47.1,43.6,39.7,96,90,84,30.33,30.08,11,1,11,0.05
2013-11-6,51.4,47.8,44.2,46.7,44.1,41.9,93,87,78,30.39,30.09,6,0,6,0.07
2013-11-7,51.1,49.4,48.3,49.2,46.6,44.3,94,90,79,30.09,29.77,24,4,24,0.90
2013-11-8,53.3,36.7,48.5,45.0,5.2,-99.9,86,58,70,30.20,-32.77,14,-267,14,0.00
2013-11-9,-200.0,0.0,200.0,-99.9,-99.9,-99.9,0,0,100,0.00,-32.77,0,-999,0,0.00
2013-11-10,-200.0,0.0,200.0,-99.9,-99.9,-99.9,0,0,100,0.00,-32.77,0,-999,0,0.00
2013-11-11,-200.0,0.0,200.0,-99.9,-99.9,-99.9,0,0,100,0.00,-32.77,0,-999,0,0.00
2013-11-12,57.6,30.1,49.2,51.4,-17.1,-99.9,93,47,79,30.42,-32.77,15,-447,15,0.03
2013-11-13,54.8,51.5,49.2,49.8,48.2,46.7,92,88,77,30.50,30.37,15,1,15,0.00
2013-11-14,49.2,46.5,43.8,46.8,44.4,41.6,95,92,88,30.37,30.12,7,0,7,0.14
2013-11-15,48.2,45.4,43.8,46.0,42.4,39.5,95,89,83,30.13,29.39,27,4,30,0.37
2013-11-16,48.4,27.8,42.4,43.2,-15.7,-99.9,92,47,67,29.83,29.40,19,-391,19,0.00
2013-11-17,51.6,22.3,46.4,46.3,-34.1,-99.9,90,38,79,29.96,29.83,26,-540,26,0.00
2013-11-18,50.4,3.6,50.1,48.1,-89.3,-99.9,92,7,92,29.96,29.61,4,-927,4,0.41
2013-11-19,44.7,25.5,39.2,38.6,-21.5,-99.9,80,37,51,30.13,29.60,24,-393,24,0.03
2013-11-20,42.2,36.8,32.9,32.2,28.1,25.7,81,71,52,30.58,30.13,22,2,22,0.00
2013-11-21,43.3,34.9,29.6,29.1,27.6,25.8,88,75,52,30.74,30.58,13,2,13,0.00
2013-11-22,46.0,37.6,31.4,33.2,30.3,26.0,89,75,50,30.73,30.52,14,3,14,0.00
2013-11-23,50.2,40.3,33.9,38.5,33.4,28.8,87,77,51,30.52,30.26,15,2,15,0.00
2013-11-24,52.3,41.5,35.0,42.3,36.7,32.3,92,84,65,30.32,30.24,5,0,7,0.00
2013-11-25,51.5,41.2,34.5,43.3,37.0,32.1,93,85,65,30.35,30.32,5,0,5,0.00
2013-11-26,49.5,43.1,36.1,43.5,39.5,34.0,94,87,74,30.34,30.16,6,0,6,0.00
2013-11-27,55.3,46.4,39.9,45.1,40.8,37.3,91,81,64,30.16,30.02,11,1,11,0.00
2013-11-28,47.7,40.2,35.4,45.4,38.1,33.6,95,93,87,30.25,30.09,5,0,5,0.01
2013-11-29,47.2,43.8,39.0,44.9,41.5,37.4,95,92,86,30.38,30.24,12,1,12,0.01
2013-11-30,50.8,48.6,46.2,46.9,44.3,42.6,92,85,78,30.40,30.15,18,2,18,0.08
2013-12-1,53.9,50.8,42.5,50.4,46.6,37.6,94,85,78,30.15,29.80,27,5,27,0.01
2013-12-2,45.2,39.6,36.3,38.6,34.3,31.5,92,82,60,30.12,29.87,14,2,14,0.16
2013-12-3,38.7,35.2,30.3,32.7,27.0,23.1,88,72,57,30.39,30.12,20,6,20,0.00
2013-12-4,38.6,31.5,27.5,28.8,25.7,24.2,91,80,60,30.42,30.30,6,1,9,0.00
2013-12-5,33.7,29.1,25.0,25.6,21.9,13.9,92,75,53,30.40,30.27,19,2,19,0.00
2013-12-6,29.8,5.3,26.4,16.1,-78.4,-99.9,59,11,51,30.27,-32.77,16,-810,16,0.00
2013-12-7,-200.0,0.0,200.0,-99.9,-99.9,-99.9,0,0,100,0.00,-32.77,0,-999,0,0.00
2013-12-8,-200.0,0.0,200.0,-99.9,-99.9,-99.9,0,0,100,0.00,-32.77,0,-999,0,0.00
2013-12-9,33.4,22.4,26.0,28.0,-14.2,-99.9,81,48,59,30.65,-32.77,5,-297,5,0.00
2013-12-10,38.7,35.8,32.9,33.1,30.6,26.2,85,81,76,30.57,30.48,6,0,6,0.00
2013-12-11,39.8,35.2,30.3,34.4,31.6,27.7,92,87,77,30.49,30.23,5,0,5,0.00
2013-12-12,42.4,38.4,33.5,40.2,35.6,30.9,94,90,72,30.24,30.11,14,1,14,0.19
2013-12-13,47.6,45.3,42.4,45.6,43.4,40.2,94,93,90,30.48,30.19,10,0,10,0.02
2013-12-14,48.2,46.4,44.0,44.4,42.9,41.5,92,88,83,30.50,30.38,16,1,16,0.02
2013-12-15,50.1,47.9,46.5,47.2,45.4,42.8,94,91,83,30.52,30.38,18,2,18,0.15
2013-12-16,47.7,43.6,39.1,45.0,41.8,37.8,95,93,85,30.57,30.34,7,0,7,0.15
2013-12-17,44.8,41.3,38.8,41.7,39.2,37.5,96,92,86,30.35,30.18,12,1,12,0.01
2013-12-18,43.6,43.2,42.0,41.1,40.6,38.7,91,90,88,30.20,30.14,14,1,14,0.12
2013-12-19,39.4,35.1,30.4,29.1,27.0,23.7,87,73,57,30.42,30.27,5,0,5,0.00
2013-12-20,41.3,36.5,31.9,40.0,33.7,27.8,95,90,80,30.27,29.78,25,2,25,0.45
2013-12-21,43.8,41.5,39.2,42.5,39.9,37.3,95,94,93,30.23,29.90,9,0,9,0.16
2013-12-22,49.1,46.6,43.7,47.4,45.4,42.4,96,96,92,30.36,30.22,18,1,18,0.26
2013-12-23,53.7,48.1,43.1,48.0,44.6,39.2,94,88,78,30.58,30.18,28,5,28,0.02
2013-12-24,46.1,40.0,35.0,41.9,37.3,33.2,95,90,79,30.70,30.58,7,0,7,0.02
2013-12-25,39.3,22.1,31.7,37.7,-15.9,-99.9,95,59,90,30.61,30.46,5,-370,5,0.00
2013-12-26,42.9,12.2,38.8,38.9,-59.3,-99.9,92,26,85,30.48,30.27,4,-705,4,0.00
2013-12-27,45.2,14.3,37.6,42.9,-53.0,-99.9,96,31,86,30.44,30.18,21,-665,21,0.04
2013-12-28,46.6,16.7,43.1,44.4,-47.0,-99.9,95,34,86,30.59,30.44,6,-627,6,0.01
2013-12-29,42.2,13.9,37.5,39.7,-53.1,-99.9,96,31,88,30.55,30.38,4,-658,4,0.01
2013-12-30,43.1,9.2,42.5,40.7,-69.6,-99.9,93,20,90,30.39,30.19,7,-783,7,0.00
2013-12-31,45.4,13.8,44.0,43.4,-55.6,-99.9,94,29,92,30.45,30.25,7,-689,7,0.00
2014-1-1,42.6,15.9,36.6,40.9,-45.2,-99.9,96,37,91,30.48,30.31,4,-606,4,0.00
2014-1-2,44.3,3.7,43.4,42.4,-87.9,-99.9,94,8,92,30.31,30.16,13,-914,13,0.00